This demonstration page uses our WeatherBlox Daily Observations layout. Learn more.

Left ArrowRight Arrow

Hourly Observations for September 29, 2022

Temp ( °F °C ) Dew Point ( °F °C ) Humidity (%) Winds ( mph kmh ) Pressure ( in mb ) Visibility ( mi km ) Precip ( " mm )
12:53 am 00:53 Clear 55 12.8 41 5 59 59 NE 5 7 30.18 1022 10 16 0.00 0.00
1:53 am 01:53 Clear 52 11.1 41 5 66 66 NNE 3 6 30.17 1022 10 16 0.00 0.00
2:53 am 02:53 Clear 52 11.1 42 5.6 69 69 Calm 30.16 1022 10 16 0.00 0.00
3:53 am 03:53 Clear 51 10.6 41 5 68 68 NE 3 6 30.16 1021 10 16 0.00 0.00
4:53 am 04:53 Clear 50 10 40 4.4 68 68 NNE 6 9 30.16 1021 10 16 0.00 0.00
5:53 am 05:53 Clear 50 10 40 4.4 68 68 N 6 9 30.16 1021 10 16 0.00 0.00
6:53 am 06:53 Clear 50 10 40 4.4 68 68 N 6 9 30.16 1021 10 16 0.00 0.00
7:53 am 07:53 Sunny 50 10 40 4.4 68 68 N 5 7 30.16 1021 10 16 0.00 0.00
8:53 am 08:53 Sunny 58 14.4 42 5.6 55 55 NE 16 26 30.16 1022 10 16 0.00 0.00
9:53 am 09:53 Sunny 61 16.1 41 5 48 48 NE 17 28 30.17 1022 10 16 0.00 0.00
10:53 am 10:53 Sunny 65 18.3 41 5 41 41 NE 18 30 30.16 1022 10 16 0.00 0.00
11:53 am 11:53 Sunny 68 20 41 5 37 37 NE 23 37 30.16 1022 10 16 0.00 0.00
12:53 pm 12:53 Sunny 69 20.6 41 5 36 36 NE 18 30 30.14 1021 10 16 0.00 0.00
1:53 pm 13:53 Sunny 72 22.2 41 5 33 33 ENE 21 33 30.12 1020 10 16 0.00 0.00
2:53 pm 14:53 Sunny 73 22.8 40 4.4 30 30 NE 21 33 30.09 1019 10 16 0.00 0.00
3:53 pm 15:53 Sunny 74 23.3 40 4.4 29 29 NNE 17 28 30.07 1018 10 16 0.00 0.00
4:53 pm 16:53 Sunny 74 23.3 41 5 30 30 ENE 15 24 30.06 1018 10 16 0.00 0.00
5:53 pm 17:53 Sunny 73 22.8 41 5 31 31 NE 13 20 30.06 1018 10 16 0.00 0.00
6:53 pm 18:53 Sunny 70 21.1 43 6.1 38 38 ENE 15 24 30.07 1018 10 16 0.00 0.00
7:53 pm 19:53 Clear 67 19.4 42 5.6 40 40 NE 12 19 30.06 1018 10 16 0.00 0.00
8:53 pm 20:53 Clear 64 17.8 42 5.6 45 45 NE 9 15 30.07 1018 10 16 0.00 0.00
9:53 pm 21:53 Clear 64 17.8 43 6.1 46 46 NE 9 15 30.07 1018 10 16 0.00 0.00
10:53 pm 22:53 Clear 62 16.7 44 6.7 52 52 NE 10 17 30.06 1018 10 16 0.00 0.00
11:53 pm 23:53 Mostly Clear 63 17.2 44 6.7 50 50 NE 9 15 30.04 1017 10 16 0.00 0.00

Powered by AerisWeather